Content
SEND FEEDBACK

Daily
Averages
Monthly
Summary
United States of America

MERIZO, GUAM


Home > North America > United States > Guam
Elevation: 10 feet     Latitude: 13 14N     Longitude: 144 39E

WEATHER
 
SELECT A DAY
Number of Records: 351,895;   Date Range: 1/1/95 - 10/24/14
 
SHARE

PRINT THIS DATA

[ ← Previous Day ]
WEATHER ALMANAC - FEBRUARY 5, 2013
[ Next Day → ]
[ °C ]   °F
Weather ElementAverageHighLow
Temperature78.4 °F84.2 °F (12:58 pm)73.4 °F (2:56 am)
Dewpoint71.6 °F73.4 °F (5:27 am)69.6 °F (6:55 pm)
Humidity79.7 %94 % (2:56 am)66 % (12:58 pm)
Barometer29.92 in29.99 in (8:55 am)29.85 in (3:55 pm)
Wind Speed16.4 mph21.9 mph (12:55 pm)
Wind Gust27.6 mph (12:48 pm)
Weather ElementAverage
Visibility9.8 mi
Wind DirectionENE (63.5 °)

Weather ElementTotal
Precipitation0.06 in
Cooling Degree Days13.8 (Base 65)
Growing Degree Days28.8 (Base 50)
Averaged from 89 records on February 5, 2013
WEATHER CONDITIONS BREAKOUT
WIND DIRECTION BREAKOUT
WEATHER BY HOUR - FEBRUARY 5, 2013
[ °C ]   °F
Local TimeTemperatureDewpointHumidityBarometerVisibilityWind DirectionWind SpeedGust SpeedPrecipitationEventsConditions
12:29 AM77.0 °F71.6 °F83 %29.96 in10.0 miENE (60°)11.5 mphScattered Clouds
12:40 AM77.0 °F71.6 °F83 %29.96 in10.0 miENE (60°)11.5 mphMostly Cloudy
12:45 AM77.0 °F71.6 °F83 %29.96 in10.0 miENE (70°)12.7 mphMostly Cloudy
12:55 AM76.8 °F71.1 °F82 %29.96 in10.0 miENE (70°)10.4 mphPartly Cloudy
1:17 AM77.0 °F71.6 °F83 %29.96 in10.0 miENE (60°)12.7 mphMostly Cloudy
1:24 AM77.0 °F71.6 °F83 %29.96 in10.0 miENE (60°)11.5 mphScattered Clouds
1:29 AM77.0 °F71.6 °F83 %29.96 in10.0 miENE (60°)15.0 mphMostly Cloudy
1:41 AM77.0 °F71.6 °F83 %29.95 in10.0 miENE (70°)12.7 mphMostly Cloudy
1:55 AM77.2 °F72.0 °F84 %29.95 in10.0 miENE (60°)13.8 mphMostly Cloudy
2:23 AM77.0 °F71.6 °F83 %29.94 in10.0 miENE (60°)13.8 mphMostly Cloudy
2:24 AM77.0 °F71.6 °F83 %29.94 in10.0 miENE (60°)13.8 mphMostly Cloudy
2:26 AM77.0 °F71.6 °F83 %29.94 in10.0 miEast (80°)15.0 mphMostly Cloudy
2:27 AM77.0 °F71.6 °F83 %29.94 in10.0 miEast (80°)16.1 mphMostly Cloudy
2:39 AM77.0 °F71.6 °F83 %29.94 in10.0 miEast (80°)18.4 mphMostly Cloudy
2:46 AM75.2 °F71.6 °F89 %29.95 in9.0 miENE (70°)15.0 mphRainLight Rain
2:55 AM74.3 °F71.6 °F91 %29.94 in8.0 miENE (70°)9.2 mph0.00 inRainLight Rain
2:56 AM73.4 °F71.6 °F94 %29.94 in8.0 miENE (70°)10.4 mphOvercast
2:57 AM73.4 °F71.6 °F94 %29.94 in8.0 miENE (70°)11.5 mphLight Drizzle
2:59 AM73.4 °F71.6 °F94 %29.94 in5.0 miEast (80°)12.7 mphRainHeavy Rain
3:15 AM73.4 °F71.6 °F94 %29.94 in7.0 miESE (110°)9.2 mphRainLight Rain
3:18 AM75.2 °F71.6 °F89 %29.94 in8.0 miEast (90°)5.8 mphRainLight Rain
3:33 AM75.2 °F71.6 °F89 %29.93 in10.0 miENE (60°)15.0 mphLight Drizzle
3:36 AM75.2 °F71.6 °F89 %29.93 in10.0 miENE (60°)12.7 mphMostly Cloudy
3:41 AM77.0 °F71.6 °F83 %29.93 in10.0 miENE (60°)15.0 mphMostly Cloudy
3:55 AM76.1 °F72.7 °F89 %29.93 in10.0 miENE (60°)15.0 mph0.06 inOvercast
4:13 AM77.0 °F71.6 °F83 %29.93 in10.0 miENE (70°)16.1 mphMostly Cloudy
4:51 AM77.0 °F71.6 °F83 %29.93 in10.0 miENE (60°)13.8 mphMostly Cloudy
4:55 AM76.6 °F72.5 °F87 %29.93 in10.0 miENE (70°)15.0 mphMostly Cloudy
5:27 AM77.0 °F73.4 °F89 %29.94 in10.0 miENE (60°)13.8 mph23.0 mphRainLight Rain
5:34 AM77.0 °F73.4 °F89 %29.94 in10.0 miENE (70°)17.3 mph23.0 mphLight Drizzle
5:36 AM77.0 °F73.4 °F89 %29.94 in10.0 miENE (70°)16.1 mph23.0 mphLight Drizzle
5:38 AM77.0 °F73.4 °F89 %29.94 in10.0 miENE (60°)16.1 mph23.0 mphOvercast
5:51 AM77.0 °F71.6 °F83 %29.95 in10.0 miENE (70°)16.1 mphScattered Clouds
5:55 AM76.3 °F72.1 °F87 %29.95 in10.0 miENE (70°)13.8 mph0.00 inScattered Clouds
5:59 AM77.0 °F71.6 °F83 %29.95 in10.0 miENE (70°)17.3 mphMostly Cloudy
6:00 AM77.0 °F73.4 °F89 %29.95 in10.0 miENE (70°)15.0 mphMostly Cloudy
6:55 AM76.5 °F71.8 °F85 %29.96 in10.0 miENE (60°)17.3 mphPartly Cloudy
7:06 AM77.0 °F71.6 °F83 %29.96 in10.0 miENE (60°)17.3 mphMostly Cloudy
7:08 AM77.0 °F71.6 °F83 %29.97 in10.0 miENE (60°)18.4 mphScattered Clouds
7:22 AM77.0 °F71.6 °F83 %29.97 in10.0 miENE (70°)15.0 mph23.0 mphMostly Cloudy
7:35 AM77.0 °F71.6 °F83 %29.98 in10.0 miENE (60°)13.8 mphScattered Clouds
7:40 AM78.8 °F71.6 °F78 %29.98 in10.0 miENE (60°)16.1 mphMostly Cloudy
7:42 AM78.8 °F71.6 °F78 %29.98 in10.0 miENE (60°)18.4 mphMostly Cloudy
7:43 AM78.8 °F71.6 °F78 %29.98 in10.0 miENE (60°)17.3 mphMostly Cloudy
8:10 AM78.8 °F71.6 °F78 %29.98 in10.0 miENE (60°)17.3 mphScattered Clouds
8:55 AM79.2 °F72.5 °F80 %29.99 in10.0 miENE (70°)17.3 mph21.9 mphScattered Clouds
8:57 AM78.8 °F73.4 °F83 %29.98 in10.0 miEast (80°)18.4 mph21.9 mphMostly Cloudy
9:55 AM81.5 °F71.8 °F72 %29.98 in10.0 miEast (80°)19.6 mph25.3 mphMostly Cloudy
9:58 AM82.4 °F71.6 °F70 %29.98 in10.0 miENE (70°)16.1 mph25.3 mphScattered Clouds
10:55 AM82.6 °F72.0 °F70 %29.95 in10.0 miENE (60°)19.6 mphScattered Clouds
11:47 AM82.4 °F73.4 °F74 %29.93 in10.0 miENE (60°)18.4 mphMostly Cloudy
11:49 AM82.4 °F73.4 °F74 %29.93 in10.0 miENE (60°)20.7 mphScattered Clouds
11:55 AM82.9 °F72.7 °F71 %29.92 in10.0 miENE (70°)19.6 mph24.2 mphScattered Clouds
12:48 PM82.4 °F73.4 °F74 %29.90 in10.0 miENE (60°)20.7 mph27.6 mphMostly Cloudy
12:55 PM83.1 °F71.8 °F68 %29.90 in10.0 miENE (60°)21.9 mphMostly Cloudy
12:58 PM84.2 °F71.6 °F66 %29.90 in10.0 miENE (60°)20.7 mphScattered Clouds
1:13 PM84.2 °F71.6 °F66 %29.89 in10.0 miNE (50°)19.6 mphMostly Cloudy
1:15 PM82.4 °F71.6 °F70 %29.89 in10.0 miENE (60°)20.7 mphScattered Clouds
1:55 PM82.9 °F72.0 °F69 %29.88 in10.0 miNE (50°)20.7 mphPartly Cloudy
2:07 PM82.4 °F71.6 °F70 %29.88 in10.0 miNE (50°)21.9 mphMostly Cloudy
2:09 PM82.4 °F71.6 °F70 %29.87 in10.0 miNE (50°)18.4 mphScattered Clouds
2:14 PM82.4 °F71.6 °F70 %29.87 in10.0 miENE (60°)19.6 mphMostly Cloudy
2:37 PM82.4 °F69.8 °F66 %29.86 in10.0 miENE (60°)21.9 mphScattered Clouds
2:55 PM82.8 °F71.2 °F68 %29.86 in10.0 miENE (60°)20.7 mphPartly Cloudy
3:55 PM82.6 °F71.6 °F69 %29.85 in10.0 miNE (50°)18.4 mphScattered Clouds
4:02 PM82.4 °F71.6 °F70 %29.86 in10.0 miENE (60°)16.1 mphMostly Cloudy
4:30 PM80.6 °F71.6 °F74 %29.86 in10.0 miENE (60°)17.3 mphScattered Clouds
4:55 PM80.8 °F71.1 °F72 %29.86 in10.0 miENE (60°)17.3 mphScattered Clouds
4:58 PM80.6 °F71.6 °F74 %29.86 in10.0 miENE (60°)16.1 mphMostly Cloudy
4:59 PM80.6 °F69.8 °F70 %29.86 in10.0 miENE (60°)17.3 mphScattered Clouds
5:55 PM78.6 °F70.5 °F76 %29.87 in10.0 miENE (60°)19.6 mphScattered Clouds
6:02 PM78.8 °F71.6 °F78 %29.87 in10.0 miENE (60°)19.6 mphMostly Cloudy
6:21 PM78.8 °F69.8 °F74 %29.87 in10.0 miENE (60°)20.7 mphScattered Clouds
6:32 PM78.8 °F69.8 °F74 %29.88 in10.0 miENE (60°)17.3 mphMostly Cloudy
6:34 PM78.8 °F69.8 °F74 %29.88 in10.0 miENE (60°)18.4 mphScattered Clouds
6:55 PM77.9 °F69.6 °F76 %29.88 in10.0 miENE (60°)17.3 mphPartly Cloudy
7:55 PM77.5 °F70.2 °F78 %29.90 in10.0 miNE (50°)18.4 mphScattered Clouds
8:17 PM77.0 °F69.8 °F78 %29.90 in10.0 miENE (60°)18.4 mphMostly Cloudy
8:23 PM77.0 °F69.8 °F78 %29.90 in10.0 miENE (60°)18.4 mphScattered Clouds
8:46 PM78.8 °F71.6 °F78 %29.91 in10.0 miNE (50°)18.4 mph24.2 mphMostly Cloudy
8:47 PM78.8 °F71.6 °F78 %29.91 in10.0 miENE (60°)19.6 mph24.2 mphMostly Cloudy
8:48 PM78.8 °F71.6 °F78 %29.91 in10.0 miENE (60°)19.6 mph24.2 mphMostly Cloudy
8:55 PM78.1 °F70.9 °F78 %29.91 in10.0 miNE (50°)18.4 mphMostly Cloudy
9:29 PM77.0 °F69.8 °F78 %29.91 in10.0 miENE (70°)16.1 mphMostly Cloudy
9:55 PM77.5 °F71.1 °F80 %29.91 in10.0 miENE (60°)16.1 mphMostly Cloudy
10:09 PM77.0 °F71.6 °F83 %29.91 in10.0 miENE (60°)16.1 mphMostly Cloudy
10:55 PM77.2 °F71.1 °F81 %29.89 in10.0 miNE (50°)16.1 mphMostly Cloudy
11:29 PM77.0 °F69.8 °F78 %29.88 in10.0 miENE (60°)17.3 mphMostly Cloudy
11:55 PM77.2 °F70.2 °F79 %29.88 in10.0 miENE (60°)13.8 mphMostly Cloudy
Hourly data recorded from PGUA, located miles away from Merizo, Guam







STORIES FROM OUR PARTNERS